Retour au catalogue

IRIDE-MS2-HEO-11

ActifScienceSSO
NORAD 68983·PAYLOAD·🇰🇷 South Korea

Lancé May 3, 2026 depuis Vandenberg Space Force Base

Loading…

Prochains Passages (prochaines 24 heures)

TLE

FraisSource: Space-Track

Époque: Sep 14, 2026, 12:44 UTC

1 68983U 26100D   26257.53097625  .00001183  00000-0  12511-3 0  9998
2 68983  97.7251 153.1915 0002777 180.8443 179.2772 14.91032093 20013

Suivez IRIDE-MS2-HEO-11 en temps réel avec AllMySat

Download on the App Store